TimeCST,TemperatureF,Dew PointF,Humidity,Sea Level PressureIn,VisibilityMPH,Wind Direction,Wind SpeedMPH,Gust SpeedMPH,PrecipitationIn,Events,Conditions,WindDirDegrees,DateUTC
12:15 AM,33.8,32.0,93,29.92,10.0,SE,3.5,-,N/A,,Overcast,130,2013-02-07 06:15:00
12:55 AM,33.8,32.0,93,29.91,10.0,SE,3.5,-,N/A,,Overcast,130,2013-02-07 06:55:00
1:15 AM,33.8,32.0,93,29.91,10.0,Calm,Calm,-,N/A,,Overcast,0,2013-02-07 07:15:00
1:35 AM,32.0,32.0,100,29.90,10.0,Calm,Calm,-,N/A,,Scattered Clouds,0,2013-02-07 07:35:00
1:55 AM,32.0,32.0,100,29.91,7.0,Calm,Calm,-,N/A,,Clear,0,2013-02-07 07:55:00
2:15 AM,32.0,32.0,100,29.91,7.0,Calm,Calm,-,N/A,,Clear,0,2013-02-07 08:15:00
2:35 AM,32.0,30.2,93,29.92,5.0,Calm,Calm,-,N/A,,Clear,0,2013-02-07 08:35:00
2:55 AM,32.0,30.2,93,29.91,5.0,Calm,Calm,-,N/A,,Clear,0,2013-02-07 08:55:00
3:15 AM,30.2,30.2,100,29.91,5.0,North,4.6,-,N/A,,Clear,10,2013-02-07 09:15:00
3:35 AM,32.0,30.2,93,29.90,5.0,Calm,Calm,-,N/A,,Clear,0,2013-02-07 09:35:00
3:55 AM,30.2,30.2,100,29.89,3.0,Calm,Calm,-,N/A,,Clear,0,2013-02-07 09:55:00
4:15 AM,30.2,30.2,100,29.90,3.0,North,4.6,-,N/A,,Clear,360,2013-02-07 10:15:00
4:35 AM,30.2,30.2,100,29.91,4.0,North,5.8,-,N/A,,Clear,360,2013-02-07 10:35:00
4:55 AM,30.2,30.2,100,29.91,3.0,North,3.5,-,N/A,,Clear,10,2013-02-07 10:55:00
5:15 AM,30.2,30.2,100,29.91,3.0,NNW,3.5,-,N/A,,Scattered Clouds,340,2013-02-07 11:15:00
5:35 AM,32.0,30.2,93,29.91,3.0,North,8.1,-,N/A,,Mostly Cloudy,350,2013-02-07 11:35:00
5:55 AM,30.2,30.2,100,29.92,0.5,North,10.4,-,N/A,Fog,Light Freezing Fog,350,2013-02-07 11:55:00
6:15 AM,30.2,30.2,100,29.92,0.5,North,6.9,-,N/A,Fog,Light Freezing Fog,360,2013-02-07 12:15:00
6:35 AM,30.2,28.4,93,29.93,0.5,North,10.4,-,N/A,Fog,Light Freezing Fog,350,2013-02-07 12:35:00
6:55 AM,28.4,28.4,100,29.94,0.2,NNW,13.8,-,N/A,Fog,Light Freezing Fog,340,2013-02-07 12:55:00
7:15 AM,26.6,26.6,100,29.94,0.2,NNW,11.5,-,N/A,Fog,Light Freezing Fog,340,2013-02-07 13:15:00
7:35 AM,26.6,26.6,100,29.95,0.2,NNW,11.5,-,N/A,Fog,Light Freezing Fog,340,2013-02-07 13:35:00
7:55 AM,26.6,26.6,100,29.96,0.2,NNW,10.4,-,N/A,Fog,Light Freezing Fog,340,2013-02-07 13:55:00
8:15 AM,26.6,26.6,100,29.97,0.2,North,11.5,-,N/A,Fog,Light Freezing Fog,360,2013-02-07 14:15:00
8:35 AM,26.6,26.6,100,29.97,0.2,NNW,10.4,-,N/A,Fog,Light Freezing Fog,340,2013-02-07 14:35:00
8:55 AM,26.6,26.6,100,29.99,0.5,North,11.5,16.1,N/A,Fog,Light Freezing Fog,350,2013-02-07 14:55:00
9:15 AM,26.6,26.6,100,29.99,0.2,NNW,12.7,-,N/A,Fog,Light Freezing Fog,340,2013-02-07 15:15:00
9:35 AM,26.6,26.6,100,29.99,0.2,North,12.7,-,N/A,Fog,Light Freezing Fog,350,2013-02-07 15:35:00
9:55 AM,26.6,26.6,100,29.99,0.2,North,17.3,-,N/A,Fog,Light Freezing Fog,350,2013-02-07 15:55:00
10:15 AM,26.6,26.6,100,29.99,0.2,North,18.4,-,N/A,Fog,Light Freezing Fog,350,2013-02-07 16:15:00
10:35 AM,28.4,26.6,93,29.99,0.5,NNW,15.0,-,N/A,Fog,Light Freezing Fog,340,2013-02-07 16:35:00
10:55 AM,26.6,26.6,100,30.01,0.5,NNW,13.8,-,N/A,Fog,Light Freezing Fog,340,2013-02-07 16:55:00
11:15 AM,26.6,26.6,100,30.00,0.5,North,13.8,-,N/A,Fog,Light Freezing Fog,350,2013-02-07 17:15:00
11:35 AM,28.4,26.6,93,30.01,0.8,NNW,11.5,18.4,N/A,,Overcast,340,2013-02-07 17:35:00
11:55 AM,26.6,26.6,100,30.01,1.0,NNW,10.4,19.6,N/A,,Overcast,340,2013-02-07 17:55:00
12:15 PM,26.6,26.6,100,30.01,1.0,NNW,12.7,-,N/A,,Overcast,330,2013-02-07 18:15:00
12:35 PM,26.6,26.6,100,30.01,1.2,NNW,16.1,19.6,N/A,,Overcast,340,2013-02-07 18:35:00
12:55 PM,26.6,26.6,100,30.01,1.2,NNW,15.0,-,N/A,,Overcast,340,2013-02-07 18:55:00
1:15 PM,26.6,26.6,100,30.01,1.2,North,15.0,-,N/A,,Overcast,350,2013-02-07 19:15:00
1:35 PM,26.6,26.6,100,30.01,1.2,North,15.0,19.6,N/A,,Overcast,350,2013-02-07 19:35:00
1:55 PM,26.6,26.6,100,30.01,1.2,NNW,13.8,18.4,N/A,,Overcast,340,2013-02-07 19:55:00
2:15 PM,26.6,26.6,100,30.01,1.5,NNW,15.0,19.6,N/A,,Overcast,340,2013-02-07 20:15:00
2:35 PM,26.6,26.6,100,30.01,1.8,NNW,16.1,-,N/A,,Overcast,340,2013-02-07 20:35:00
2:55 PM,26.6,24.8,93,30.02,2.0,North,15.0,23.0,N/A,,Overcast,360,2013-02-07 20:55:00
3:15 PM,26.6,24.8,93,30.02,2.0,North,10.4,-,N/A,,Overcast,350,2013-02-07 21:15:00
3:35 PM,26.6,24.8,93,30.04,2.5,North,16.1,-,N/A,,Overcast,350,2013-02-07 21:35:00
3:55 PM,26.6,24.8,93,30.05,2.5,NNW,13.8,18.4,N/A,,Overcast,340,2013-02-07 21:55:00
4:15 PM,26.6,24.8,93,30.06,2.5,NNW,13.8,19.6,N/A,,Overcast,340,2013-02-07 22:15:00
4:35 PM,26.6,24.8,93,30.06,2.5,North,15.0,21.9,N/A,,Overcast,350,2013-02-07 22:35:00
4:55 PM,26.6,24.8,93,30.07,2.5,North,12.7,-,N/A,,Overcast,350,2013-02-07 22:55:00
5:15 PM,26.6,24.8,93,30.08,3.0,NNW,12.7,-,N/A,,Overcast,340,2013-02-07 23:15:00
5:35 PM,26.6,24.8,93,30.09,3.0,North,15.0,-,N/A,,Overcast,350,2013-02-07 23:35:00
5:55 PM,26.6,24.8,93,30.10,5.0,North,11.5,19.6,N/A,,Overcast,350,2013-02-07 23:55:00
6:15 PM,26.6,24.8,93,30.11,5.0,NNW,13.8,-,N/A,,Overcast,340,2013-02-08 00:15:00
6:35 PM,26.6,23.0,86,30.12,7.0,North,12.7,-,N/A,,Overcast,350,2013-02-08 00:35:00
6:55 PM,26.6,23.0,86,30.13,7.0,North,17.3,-,N/A,,Overcast,350,2013-02-08 00:55:00
7:15 PM,26.6,23.0,86,30.14,7.0,NNW,12.7,-,N/A,,Overcast,340,2013-02-08 01:15:00
7:35 PM,26.6,23.0,86,30.14,7.0,North,12.7,18.4,N/A,,Overcast,350,2013-02-08 01:35:00
7:55 PM,26.6,23.0,86,30.13,7.0,North,13.8,-,N/A,,Overcast,350,2013-02-08 01:55:00
8:15 PM,26.6,23.0,86,30.14,7.0,North,10.4,-,N/A,,Overcast,350,2013-02-08 02:15:00
8:35 PM,26.6,23.0,86,30.15,10.0,North,10.4,-,N/A,,Overcast,350,2013-02-08 02:35:00
8:55 PM,26.6,23.0,86,30.16,10.0,North,11.5,-,N/A,,Overcast,350,2013-02-08 02:55:00
9:15 PM,26.6,23.0,86,30.16,10.0,North,10.4,-,N/A,,Overcast,350,2013-02-08 03:15:00
9:35 PM,24.8,21.2,86,30.17,10.0,North,10.4,-,N/A,,Overcast,350,2013-02-08 03:35:00
9:55 PM,24.8,21.2,86,30.18,10.0,NNW,11.5,-,N/A,,Overcast,330,2013-02-08 03:55:00
10:15 PM,24.8,21.2,86,30.18,10.0,NNW,10.4,16.1,N/A,,Overcast,340,2013-02-08 04:15:00
10:35 PM,24.8,21.2,86,30.18,10.0,NNW,9.2,-,N/A,,Overcast,340,2013-02-08 04:35:00
10:55 PM,23.0,21.2,93,30.19,10.0,NNW,8.1,-,N/A,,Scattered Clouds,340,2013-02-08 04:55:00
11:15 PM,23.0,21.2,93,30.19,10.0,NNW,10.4,-,N/A,,Clear,340,2013-02-08 05:15:00
11:35 PM,23.0,19.4,86,30.19,10.0,North,8.1,-,N/A,,Clear,350,2013-02-08 05:35:00
11:55 PM,21.2,19.4,93,30.19,10.0,North,9.2,-,N/A,,Clear,360,2013-02-08 05:55:00